Location: Beneden-Haastrecht
(52.0012°N, 4.7557°E)
Time: 14:06:56
(UTC+00:00)

Cosmos 1486 Rocket - Pass Details

Date: 24 October 2020
Orbit: 758 x 784 km, 74.1° (Epoch: 28 November)

Event Time Altitude Azimuth Distance (km) Brightness Sun altitude
Rises 18:22:01 0° 334° (NNW) 3,286 7.7 -18.3°
Reaches altitude 10° 18:24:25 10° 335° (NNW) 2,354 6.9 -18.6°
Maximum altitude 18:29:48 86° 65° (ENE) 793 4.0 -19.4°
Enters shadow 18:33:49 18° 154° (SSE) 1,836 5.7 -20.1°
